Tracking 19489 objects as of 23-Jan-2019
HD Live streaming from Space Station
objects crossing your sky now

FENGYUN 1C DEB

Track FENGYUN 1C DEB now!
10-day predictions


NORAD ID: 32106
Int'l Code: 1999-025CQY
Perigee: 787.8 km
Apogee: 1,021.6 km
Inclination: 101.5 °
Period: 102.9 minutes
Semi major axis: 7275 km
RCS: 0.0084 m2 (small)
Launch date: May 10, 1999
Source: People's Republic of China (PRC)
Launch site: Taiyaun Space Center, China (TSC)

Note: This is SATELLITE DEBRIS
aabbcc
Your satellite tracking list
Your tracking list is empty




NASA's NSSDC Master Catalog

Two Line Element Set (TLE):
1 32106U 99025CQY 19021.13867127 +.00000681 +00000-0 +46287-3 0  9990
2 32106 101.4924 010.5295 0160620 000.1250 359.9919 13.98912840584478
Source of the keplerian elements: AFSPC